Location: Allen Lane School
(37.8198°N, 89.7382°W)
Time: 13:36:57
(UTC+00:00)

Hubble Space Telescope - Pass Details

Date: 06 December 2022
Orbit: 529 x 532 km, 28.5° (Epoch: 26 January)

Event Time Altitude Azimuth Distance (km) Brightness Sun altitude
Rises 11:46:07 0° 218° (SW) 2,647 4.1 -14.3°
Reaches altitude 10° 11:49:31 10° 189° (S) 1,759 3.5 -13.7°
Maximum altitude 11:51:16 12° 163° (SSE) 1,606 3.7 -13.3°
Drops below altitude 10° 11:53:01 10° 137° (SE) 1,760 4.4 -13.0°
Sets 11:56:25 0° 108° (ESE) 2,650 6.5 -12.4°
